SBI7520 UTAA-LTFG

Flight info

Callsign SBI7520
Flight time N/A
Altitude 36000
Route UTAA N0440F360 MAM29D MAMED B449 DUKAN N449 INDUR UN161 ERZ UL615 SIV UA285 MUT UT339 ELROP ELRO1D ROKDU BEPTO EVBUM MA08 RW08 LTFG
Aircraft B738/M-SDGIWZ/S

Departure

Time 2026-05-06 02:39
Airport Ashgabat International Airport (UTAA)

Arrival

Time N/A
Airport Gazipaşa-Alanya Airport (LTFG)
Time Latitude Longitude Altitude Speed Heading
2026-05-06 02:08 37.96722 58.37336 699 ft 0 kts 128°
2026-05-06 02:35 37.96728 58.37326 699 ft 2 kts 128°
2026-05-06 02:35 37.96746 58.37298 699 ft 5 kts 128°
2026-05-06 02:36 37.96774 58.37270 699 ft 4 kts 201°
2026-05-06 02:36 37.96765 58.37262 699 ft 10 kts 214°
2026-05-06 02:36 37.96687 58.37257 699 ft 16 kts 136°
2026-05-06 02:36 37.96627 58.37396 699 ft 16 kts 59°
2026-05-06 02:37 37.96738 58.37515 699 ft 24 kts 37°
2026-05-06 02:37 37.96907 58.37489 699 ft 29 kts 341°
2026-05-06 02:37 37.97089 58.37398 699 ft 24 kts 325°
2026-05-06 02:37 37.97212 58.37297 699 ft 17 kts 352°
2026-05-06 02:38 37.97321 58.37307 699 ft 14 kts 328°
2026-05-06 02:38 37.97465 58.37003 699 ft 75 kts 299°
2026-05-06 02:38 37.97837 58.36173 700 ft 138 kts 299°
2026-05-06 02:38 37.98381 58.34957 808 ft 176 kts 298°
2026-05-06 02:39 37.99018 58.33476 955 ft 205 kts 297°
2026-05-06 02:39 37.99740 58.31821 1329 ft 220 kts 298°
2026-05-06 02:39 38.00476 58.30183 2149 ft 216 kts 298°
2026-05-06 02:39 38.01235 58.28457 2486 ft 232 kts 298°
2026-05-06 02:40 38.02032 58.26676 3081 ft 234 kts 302°
2026-05-06 02:40 38.03063 58.25104 3622 ft 239 kts 316°
2026-05-06 02:40 38.04460 58.23932 4172 ft 243 kts 326°
2026-05-06 02:40 38.05875 58.22734 4693 ft 246 kts 321°
2026-05-06 02:41 38.07231 58.21428 5188 ft 248 kts 320°
2026-05-06 02:41 38.08595 58.20084 5681 ft 250 kts 319°
2026-05-06 02:41 38.09970 58.18710 6160 ft 253 kts 319°
2026-05-06 02:41 38.11339 58.17332 6620 ft 255 kts 319°
2026-05-06 02:42 38.12741 58.15918 7075 ft 257 kts 319°
2026-05-06 02:42 38.14142 58.14503 7511 ft 259 kts 319°
2026-05-06 02:42 38.15557 58.13073 7936 ft 261 kts 319°
2026-05-06 02:42 38.16983 58.11632 8348 ft 263 kts 319°
2026-05-06 02:43 38.18398 58.10201 8741 ft 265 kts 319°
2026-05-06 02:43 38.19845 58.08738 9128 ft 267 kts 319°
2026-05-06 02:43 38.21315 58.07253 9508 ft 269 kts 319°
2026-05-06 02:43 38.22771 58.05782 9870 ft 271 kts 319°
2026-05-06 02:44 38.24255 58.04282 10225 ft 273 kts 319°
2026-05-06 02:44 38.25730 58.02791 10566 ft 275 kts 319°
2026-05-06 02:44 38.27236 58.01269 10902 ft 276 kts 319°
2026-05-06 02:44 38.28748 57.99741 11227 ft 278 kts 319°
2026-05-06 02:45 38.30266 57.98208 11542 ft 280 kts 319°
2026-05-06 02:45 38.31792 57.96667 11848 ft 281 kts 319°
2026-05-06 02:45 38.33325 57.95119 12147 ft 283 kts 319°
2026-05-06 02:45 38.34858 57.93572 12449 ft 284 kts 319°
2026-05-06 02:46 38.36409 57.92004 12739 ft 285 kts 319°
2026-05-06 02:46 38.37961 57.90437 13021 ft 286 kts 319°
2026-05-06 02:46 38.39513 57.88871 13294 ft 287 kts 319°
2026-05-06 02:46 38.41063 57.87305 13558 ft 288 kts 319°
2026-05-06 02:47 38.42630 57.85723 13817 ft 289 kts 319°
2026-05-06 02:47 38.44207 57.84132 14068 ft 290 kts 319°
2026-05-06 02:47 38.45794 57.82527 14313 ft 290 kts 319°
2026-05-06 02:47 38.47368 57.80932 14549 ft 291 kts 319°
2026-05-06 02:48 38.48951 57.79334 14777 ft 292 kts 319°
2026-05-06 02:48 38.50557 57.77715 15003 ft 293 kts 319°
2026-05-06 02:48 38.52148 57.76112 15219 ft 294 kts 319°
2026-05-06 02:48 38.53757 57.74490 15429 ft 295 kts 319°
2026-05-06 02:49 38.55358 57.72877 15636 ft 295 kts 319°
2026-05-06 02:49 38.56964 57.71260 15830 ft 296 kts 319°
2026-05-06 02:49 38.58588 57.69624 16028 ft 297 kts 319°
2026-05-06 02:49 38.60189 57.68010 16212 ft 297 kts 317°
2026-05-06 02:50 38.61588 57.66086 16332 ft 294 kts 298°
2026-05-06 02:50 38.62430 57.63753 16580 ft 289 kts 288°
2026-05-06 02:50 38.63129 57.61343 16721 ft 291 kts 289°
2026-05-06 02:50 38.63864 57.58910 16870 ft 292 kts 289°
2026-05-06 02:51 38.64582 57.56484 17064 ft 292 kts 288°
2026-05-06 02:51 38.65279 57.54071 17220 ft 292 kts 288°
2026-05-06 02:51 38.65985 57.51618 17387 ft 293 kts 288°
2026-05-06 02:51 38.66683 57.49186 17541 ft 293 kts 288°
2026-05-06 02:52 38.67388 57.46724 17704 ft 293 kts 288°
2026-05-06 02:52 38.68090 57.44265 17855 ft 294 kts 288°
2026-05-06 02:52 38.68780 57.41843 18000 ft 294 kts 288°
2026-05-06 02:52 38.69487 57.39364 18151 ft 294 kts 288°
2026-05-06 02:53 38.70179 57.36931 18287 ft 295 kts 288°
2026-05-06 02:53 38.70886 57.34444 18430 ft 295 kts 287°
2026-05-06 02:53 38.71584 57.31988 18566 ft 295 kts 287°
2026-05-06 02:53 38.72284 57.29519 18698 ft 296 kts 287°
2026-05-06 02:54 38.72983 57.27053 18823 ft 296 kts 287°
2026-05-06 02:54 38.73683 57.24582 18951 ft 297 kts 287°
2026-05-06 02:54 38.74392 57.22075 19068 ft 297 kts 287°
2026-05-06 02:54 38.75099 57.19574 19181 ft 298 kts 287°
2026-05-06 02:55 38.75802 57.17086 19300 ft 298 kts 287°
2026-05-06 02:55 38.76505 57.14594 19406 ft 299 kts 287°
2026-05-06 02:55 38.77202 57.12120 19517 ft 299 kts 287°
2026-05-06 02:55 38.77914 57.09589 19636 ft 299 kts 287°
2026-05-06 02:56 38.78612 57.07109 19753 ft 298 kts 287°
2026-05-06 02:56 38.79319 57.04594 19859 ft 298 kts 287°
2026-05-06 02:56 38.80020 57.02095 19965 ft 298 kts 287°
2026-05-06 02:56 38.80714 56.99622 20068 ft 298 kts 287°
2026-05-06 02:57 38.81417 56.97116 20164 ft 298 kts 287°
2026-05-06 02:57 38.82115 56.94620 20273 ft 298 kts 287°
2026-05-06 02:57 38.82811 56.92131 20362 ft 298 kts 287°
2026-05-06 02:57 38.83513 56.89619 20446 ft 298 kts 287°
2026-05-06 02:58 38.84207 56.87134 20551 ft 297 kts 287°
2026-05-06 02:58 38.84904 56.84633 20612 ft 298 kts 287°
2026-05-06 02:58 38.85602 56.82128 20688 ft 298 kts 287°
2026-05-06 02:58 38.86300 56.79621 20767 ft 298 kts 287°
2026-05-06 02:59 38.86990 56.77139 20821 ft 299 kts 287°
2026-05-06 02:59 38.87696 56.74596 20886 ft 299 kts 287°
2026-05-06 02:59 38.88391 56.72094 20962 ft 299 kts 287°
2026-05-06 02:59 38.89085 56.69590 21014 ft 300 kts 287°
2026-05-06 03:00 38.89784 56.67070 21076 ft 300 kts 287°
2026-05-06 03:00 38.90484 56.64539 21148 ft 299 kts 287°
2026-05-06 03:00 38.91177 56.62030 21204 ft 300 kts 287°
2026-05-06 03:00 38.91875 56.59504 21257 ft 300 kts 287°
2026-05-06 03:01 38.92567 56.56995 21314 ft 300 kts 287°
2026-05-06 03:01 38.93266 56.54460 21366 ft 300 kts 287°
2026-05-06 03:01 38.93957 56.51951 21416 ft 301 kts 287°
2026-05-06 03:01 38.94652 56.49427 21466 ft 301 kts 287°
2026-05-06 03:02 38.95345 56.46905 21524 ft 301 kts 287°
2026-05-06 03:02 38.96037 56.44383 21574 ft 301 kts 287°
2026-05-06 03:02 38.96736 56.41837 21625 ft 301 kts 287°
2026-05-06 03:02 38.97430 56.39304 21675 ft 301 kts 287°
2026-05-06 03:03 38.98121 56.36781 21725 ft 301 kts 287°
2026-05-06 03:03 38.98815 56.34240 21776 ft 301 kts 286°
2026-05-06 03:03 38.99507 56.31708 21826 ft 301 kts 286°
2026-05-06 03:03 39.00188 56.29163 21876 ft 301 kts 284°
2026-05-06 03:04 39.00782 56.26584 21930 ft 300 kts 283°
2026-05-06 03:04 39.01354 56.24029 21979 ft 300 kts 283°
2026-05-06 03:04 39.01950 56.21442 22029 ft 300 kts 283°
2026-05-06 03:04 39.02544 56.18858 22080 ft 300 kts 283°
2026-05-06 03:05 39.03131 56.16295 22130 ft 300 kts 283°
2026-05-06 03:05 39.03717 56.13739 22180 ft 300 kts 283°
2026-05-06 03:05 39.04306 56.11162 22230 ft 300 kts 283°
2026-05-06 03:05 39.04898 56.08576 22280 ft 300 kts 283°
2026-05-06 03:06 39.05483 56.06014 22329 ft 300 kts 283°
2026-05-06 03:06 39.06063 56.03470 22379 ft 300 kts 283°
2026-05-06 03:06 39.06650 56.00893 22429 ft 299 kts 283°
2026-05-06 03:06 39.07235 55.98322 22479 ft 299 kts 283°
2026-05-06 03:07 39.07819 55.95754 22529 ft 299 kts 283°
2026-05-06 03:07 39.08398 55.93203 22578 ft 299 kts 283°
2026-05-06 03:07 39.08983 55.90625 22629 ft 299 kts 283°
2026-05-06 03:07 39.09564 55.88062 22678 ft 298 kts 283°
2026-05-06 03:08 39.10146 55.85490 22729 ft 298 kts 283°
2026-05-06 03:08 39.10724 55.82933 22778 ft 298 kts 283°
2026-05-06 03:08 39.11295 55.80407 22828 ft 297 kts 283°
2026-05-06 03:08 39.11873 55.77845 22878 ft 297 kts 283°
2026-05-06 03:09 39.12449 55.75289 22928 ft 296 kts 283°
2026-05-06 03:09 39.13018 55.72763 22978 ft 296 kts 283°
2026-05-06 03:09 39.13588 55.70226 23028 ft 296 kts 283°
2026-05-06 03:09 39.14157 55.67693 23078 ft 295 kts 283°
2026-05-06 03:10 39.14728 55.65145 23129 ft 295 kts 283°
2026-05-06 03:10 39.15292 55.62630 23178 ft 294 kts 283°
2026-05-06 03:10 39.15862 55.60083 23229 ft 294 kts 283°
2026-05-06 03:10 39.16426 55.57560 23279 ft 293 kts 283°
2026-05-06 03:11 39.16987 55.55046 23329 ft 293 kts 283°
2026-05-06 03:11 39.17548 55.52526 23380 ft 292 kts 283°
2026-05-06 03:11 39.18107 55.50013 23430 ft 292 kts 283°
2026-05-06 03:11 39.18666 55.47496 23480 ft 291 kts 283°
2026-05-06 03:12 39.19224 55.44980 23531 ft 291 kts 283°
2026-05-06 03:12 39.19780 55.42471 23581 ft 291 kts 283°
2026-05-06 03:12 39.20327 55.39998 23631 ft 290 kts 283°
2026-05-06 03:12 39.20879 55.37501 23681 ft 290 kts 283°
2026-05-06 03:13 39.21433 55.34993 23731 ft 289 kts 282°
2026-05-06 03:13 39.21981 55.32511 23782 ft 289 kts 282°
2026-05-06 03:13 39.22531 55.30012 23832 ft 289 kts 282°
2026-05-06 03:13 39.23076 55.27535 23881 ft 289 kts 282°
2026-05-06 03:14 39.23628 55.25026 23932 ft 289 kts 282°
2026-05-06 03:14 39.24173 55.22547 23982 ft 288 kts 282°
2026-05-06 03:14 39.24714 55.20078 24031 ft 288 kts 282°
2026-05-06 03:14 39.25262 55.17580 24082 ft 288 kts 283°
2026-05-06 03:15 39.25803 55.15105 24132 ft 288 kts 283°
2026-05-06 03:15 39.26342 55.12640 24181 ft 287 kts 283°
2026-05-06 03:15 39.26886 55.10153 24231 ft 287 kts 283°
2026-05-06 03:15 39.27424 55.07684 24281 ft 287 kts 283°
2026-05-06 03:16 39.27970 55.05178 24332 ft 286 kts 283°
2026-05-06 03:16 39.28502 55.02737 24381 ft 286 kts 283°
2026-05-06 03:16 39.29042 55.00249 24432 ft 286 kts 283°
2026-05-06 03:16 39.29577 54.97790 24481 ft 285 kts 283°
2026-05-06 03:17 39.30110 54.95327 24531 ft 285 kts 283°
2026-05-06 03:17 39.30644 54.92869 24581 ft 285 kts 283°
2026-05-06 03:17 39.31172 54.90425 24631 ft 284 kts 283°
2026-05-06 03:17 39.31708 54.87944 24682 ft 284 kts 283°
2026-05-06 03:18 39.32233 54.85514 24732 ft 284 kts 283°
2026-05-06 03:18 39.32760 54.83073 24782 ft 283 kts 283°
2026-05-06 03:18 39.33287 54.80626 24832 ft 283 kts 283°
2026-05-06 03:18 39.33813 54.78182 24882 ft 283 kts 283°
2026-05-06 03:19 39.34340 54.75734 24932 ft 282 kts 283°
2026-05-06 03:19 39.34861 54.73306 24982 ft 282 kts 283°
2026-05-06 03:19 39.35383 54.70875 25032 ft 282 kts 283°
2026-05-06 03:19 39.35908 54.68423 25082 ft 281 kts 283°
2026-05-06 03:20 39.36945 54.63577 25182 ft 280 kts 283°
2026-05-06 03:20 39.37464 54.61144 25232 ft 280 kts 283°
2026-05-06 03:20 39.37980 54.58726 25282 ft 280 kts 283°
2026-05-06 03:21 39.38499 54.56290 25332 ft 279 kts 283°
2026-05-06 03:21 39.39010 54.53890 25382 ft 279 kts 283°
2026-05-06 03:21 39.39526 54.51461 25433 ft 278 kts 283°
2026-05-06 03:21 39.40033 54.49074 25482 ft 278 kts 283°
2026-05-06 03:22 39.40544 54.46664 25532 ft 278 kts 283°
2026-05-06 03:22 39.41051 54.44271 25582 ft 277 kts 283°
2026-05-06 03:22 39.41559 54.41873 25632 ft 277 kts 283°
2026-05-06 03:22 39.42064 54.39481 25682 ft 276 kts 283°
2026-05-06 03:23 39.42573 54.37075 25733 ft 276 kts 283°
2026-05-06 03:23 39.43073 54.34702 25783 ft 275 kts 283°
2026-05-06 03:23 39.43576 54.32313 25832 ft 275 kts 283°
2026-05-06 03:23 39.44075 54.29942 25882 ft 275 kts 283°
2026-05-06 03:24 39.44581 54.27545 25932 ft 275 kts 283°
2026-05-06 03:24 39.45089 54.25160 25983 ft 275 kts 283°
2026-05-06 03:24 39.45592 54.22797 26033 ft 274 kts 283°
2026-05-06 03:24 39.46089 54.20414 26083 ft 274 kts 282°
2026-05-06 03:25 39.46572 54.18035 26133 ft 274 kts 282°
2026-05-06 03:25 39.47056 54.15659 26183 ft 273 kts 282°
2026-05-06 03:25 39.47557 54.13266 26233 ft 273 kts 283°
2026-05-06 03:25 39.48060 54.10910 26283 ft 273 kts 283°
2026-05-06 03:26 39.48562 54.08562 26332 ft 273 kts 283°
2026-05-06 03:26 39.49058 54.06206 26382 ft 272 kts 283°
2026-05-06 03:26 39.49551 54.03840 26432 ft 272 kts 283°
2026-05-06 03:26 39.50040 54.01471 26482 ft 271 kts 282°
2026-05-06 03:27 39.50518 53.99134 26531 ft 271 kts 282°
2026-05-06 03:27 39.50996 53.96774 26582 ft 270 kts 282°
2026-05-06 03:27 39.51466 53.94419 26632 ft 270 kts 282°
2026-05-06 03:27 39.51917 53.92162 26680 ft 269 kts 282°
2026-05-06 03:28 39.52400 53.89810 26730 ft 269 kts 283°
2026-05-06 03:28 39.52884 53.87493 26780 ft 268 kts 283°
2026-05-06 03:28 39.53368 53.85138 26844 ft 275 kts 282°
2026-05-06 03:28 39.53864 53.82697 26898 ft 285 kts 282°
2026-05-06 03:29 39.54380 53.80151 26947 ft 295 kts 282°
2026-05-06 03:29 39.54901 53.77552 26996 ft 304 kts 282°
2026-05-06 03:29 39.55438 53.74849 27046 ft 314 kts 282°
2026-05-06 03:29 39.55991 53.72080 27096 ft 323 kts 282°
2026-05-06 03:30 39.56559 53.69234 27145 ft 332 kts 282°
2026-05-06 03:30 39.57140 53.66326 27195 ft 340 kts 283°
2026-05-06 03:30 39.57751 53.63299 27244 ft 349 kts 283°
2026-05-06 03:30 39.58371 53.60262 27293 ft 356 kts 283°
2026-05-06 03:31 39.59010 53.57139 27343 ft 364 kts 283°
2026-05-06 03:31 39.59663 53.53920 27394 ft 371 kts 283°
2026-05-06 03:31 39.60322 53.50636 27443 ft 378 kts 283°
2026-05-06 03:31 39.60980 53.47360 27491 ft 384 kts 283°
2026-05-06 03:32 39.61659 53.43963 27542 ft 390 kts 283°
2026-05-06 03:32 39.62344 53.40519 27590 ft 396 kts 283°
2026-05-06 03:32 39.63030 53.37046 27642 ft 401 kts 283°
2026-05-06 03:32 39.63714 53.33561 27695 ft 406 kts 282°
2026-05-06 03:33 39.64410 53.30010 27764 ft 410 kts 282°
2026-05-06 03:33 39.65125 53.26382 27830 ft 415 kts 282°
2026-05-06 03:33 39.65842 53.22760 27944 ft 417 kts 283°
2026-05-06 03:33 39.66562 53.19139 28021 ft 420 kts 283°
2026-05-06 03:34 39.67299 53.15431 28210 ft 421 kts 283°
2026-05-06 03:34 39.68024 53.11765 28345 ft 423 kts 282°
2026-05-06 03:34 39.68742 53.08106 28478 ft 424 kts 282°
2026-05-06 03:34 39.69469 53.04386 28644 ft 424 kts 282°
2026-05-06 03:35 39.70200 53.00645 28797 ft 425 kts 282°
2026-05-06 03:35 39.70922 52.96933 28888 ft 427 kts 282°
2026-05-06 03:35 39.71640 52.93210 29015 ft 428 kts 282°
2026-05-06 03:35 39.72355 52.89475 29089 ft 430 kts 282°
2026-05-06 03:36 39.73082 52.85677 29277 ft 430 kts 282°
2026-05-06 03:36 39.73797 52.81961 29495 ft 428 kts 282°
2026-05-06 03:36 39.74537 52.78186 29626 ft 429 kts 283°
2026-05-06 03:36 39.75290 52.74422 29749 ft 430 kts 283°
2026-05-06 03:37 39.76040 52.70717 29958 ft 428 kts 283°
2026-05-06 03:37 39.76784 52.66998 30199 ft 426 kts 283°
2026-05-06 03:37 39.77523 52.63263 30416 ft 425 kts 283°
2026-05-06 03:37 39.78247 52.59543 30666 ft 422 kts 282°
2026-05-06 03:38 39.78953 52.55876 30852 ft 421 kts 282°
2026-05-06 03:38 39.79669 52.52177 30925 ft 423 kts 282°
2026-05-06 03:38 39.80392 52.48484 31026 ft 424 kts 283°
2026-05-06 03:38 39.81124 52.44771 31129 ft 425 kts 283°
2026-05-06 03:39 39.81851 52.41069 31359 ft 422 kts 283°
2026-05-06 03:39 39.82569 52.37403 31571 ft 420 kts 283°
2026-05-06 03:39 39.84013 52.30009 31750 ft 423 kts 282°
2026-05-06 03:40 39.85455 52.22570 31953 ft 424 kts 282°
2026-05-06 03:40 39.86886 52.15121 32139 ft 426 kts 282°
2026-05-06 03:41 39.87586 52.11400 32272 ft 425 kts 281°
2026-05-06 03:41 39.88282 52.07668 32475 ft 423 kts 282°
2026-05-06 03:41 39.88979 52.03955 32705 ft 420 kts 282°
2026-05-06 03:41 39.89673 52.00278 32923 ft 418 kts 282°
2026-05-06 03:42 39.90354 51.96642 33040 ft 418 kts 282°
2026-05-06 03:42 39.91055 51.92936 33132 ft 419 kts 282°
2026-05-06 03:42 39.92441 51.85598 33317 ft 419 kts 282°
2026-05-06 03:43 39.93136 51.81918 33451 ft 419 kts 282°
2026-05-06 03:43 39.93825 51.78246 33684 ft 415 kts 282°
2026-05-06 03:43 39.94501 51.74625 33927 ft 412 kts 282°
2026-05-06 03:43 39.95176 51.71018 34098 ft 411 kts 282°
2026-05-06 03:44 39.96546 51.63784 34251 ft 412 kts 282°
2026-05-06 03:44 39.97921 51.56576 34407 ft 413 kts 282°
2026-05-06 03:45 39.99244 51.49330 34571 ft 413 kts 279°
2026-05-06 03:45 40.00040 51.41925 34767 ft 411 kts 276°
2026-05-06 03:46 40.00803 51.34585 34963 ft 410 kts 277°
2026-05-06 03:46 40.01626 51.27200 35145 ft 410 kts 276°
2026-05-06 03:47 40.02357 51.19820 35340 ft 410 kts 276°
2026-05-06 03:47 40.02727 51.16171 35444 ft 409 kts 276°
2026-05-06 03:47 40.03116 51.12512 35527 ft 410 kts 276°
2026-05-06 03:48 40.03928 51.05188 35718 ft 409 kts 277°
2026-05-06 03:48 40.04715 50.97836 35919 ft 406 kts 277°
2026-05-06 03:49 40.05469 50.90607 35965 ft 402 kts 276°
2026-05-06 03:49 40.06172 50.83424 35965 ft 395 kts 276°
2026-05-06 03:50 40.06841 50.76321 35966 ft 397 kts 276°
2026-05-06 03:50 40.07539 50.69181 35963 ft 399 kts 277°
2026-05-06 03:51 40.08277 50.62050 35966 ft 397 kts 277°
2026-05-06 03:51 40.09051 50.54888 35965 ft 399 kts 277°
2026-05-06 03:52 40.09776 50.47724 35964 ft 399 kts 276°
2026-05-06 03:52 40.10448 50.40551 35966 ft 398 kts 276°
2026-05-06 03:53 40.11103 50.33364 35964 ft 399 kts 276°
2026-05-06 03:53 40.11849 50.26216 35967 ft 398 kts 277°
2026-05-06 03:54 40.12609 50.19089 35967 ft 399 kts 277°
2026-05-06 03:54 40.13331 50.11900 35964 ft 399 kts 276°
2026-05-06 03:55 40.13988 50.04737 35965 ft 397 kts 275°
2026-05-06 03:55 40.14590 49.97595 35967 ft 398 kts 275°
2026-05-06 03:56 40.15214 49.90351 35965 ft 401 kts 276°
2026-05-06 03:56 40.15870 49.83169 35963 ft 398 kts 276°
2026-05-06 03:57 40.16546 49.76020 35965 ft 396 kts 276°
2026-05-06 03:57 40.17287 49.68866 35966 ft 398 kts 277°
2026-05-06 03:58 40.18013 49.61716 35968 ft 400 kts 276°
2026-05-06 03:58 40.18620 49.54531 35965 ft 398 kts 275°
2026-05-06 03:59 40.18954 49.47347 35969 ft 396 kts 269°
2026-05-06 03:59 40.18826 49.40149 35967 ft 398 kts 269°
2026-05-06 04:00 40.18747 49.32907 35964 ft 398 kts 269°
2026-05-06 04:00 40.18776 49.25701 35966 ft 397 kts 271°
2026-05-06 04:01 40.18885 49.18528 35966 ft 399 kts 270°
2026-05-06 04:01 40.18833 49.11292 35965 ft 397 kts 269°
2026-05-06 04:02 40.18739 49.04102 35966 ft 394 kts 269°
2026-05-06 04:02 40.18695 48.97006 35967 ft 390 kts 270°
2026-05-06 04:03 40.18751 48.89946 35955 ft 392 kts 270°
2026-05-06 04:03 40.18757 48.82812 35940 ft 393 kts 270°
2026-05-06 04:04 40.18656 48.75684 35924 ft 393 kts 269°
2026-05-06 04:04 40.18562 48.68578 35911 ft 391 kts 270°
2026-05-06 04:05 40.18575 48.61498 35913 ft 393 kts 271°
2026-05-06 04:05 40.18515 48.54331 35912 ft 393 kts 269°
2026-05-06 04:06 40.18398 48.47269 35911 ft 391 kts 270°
2026-05-06 04:06 40.18291 48.40125 35913 ft 393 kts 270°
2026-05-06 04:07 40.18299 48.32991 35911 ft 393 kts 270°
2026-05-06 04:07 40.18256 48.25878 35910 ft 393 kts 269°
2026-05-06 04:08 40.18099 48.18801 35912 ft 391 kts 269°
2026-05-06 04:08 40.17941 48.11682 35913 ft 394 kts 269°
2026-05-06 04:09 40.17846 48.04537 35912 ft 392 kts 270°
2026-05-06 04:09 40.17781 47.97419 35912 ft 391 kts 270°
2026-05-06 04:10 40.17701 47.90309 35912 ft 392 kts 270°
2026-05-06 04:10 40.17691 47.83213 35936 ft 391 kts 270°
2026-05-06 04:11 40.17627 47.76116 35940 ft 393 kts 270°
2026-05-06 04:11 40.17536 47.68990 35940 ft 391 kts 269°
2026-05-06 04:12 40.17429 47.61884 35938 ft 392 kts 269°
2026-05-06 04:12 40.17315 47.54771 35939 ft 393 kts 270°
2026-05-06 04:13 40.17149 47.47686 35938 ft 390 kts 268°
2026-05-06 04:13 40.16930 47.40571 35940 ft 393 kts 269°
2026-05-06 04:14 40.16766 47.33467 35938 ft 393 kts 269°
2026-05-06 04:14 40.16629 47.26388 35937 ft 389 kts 269°
2026-05-06 04:15 40.16464 47.19321 35948 ft 390 kts 268°
2026-05-06 04:15 40.16319 47.12207 35956 ft 394 kts 269°
2026-05-06 04:16 40.16174 47.05049 35963 ft 393 kts 269°
2026-05-06 04:16 40.16020 46.97969 35964 ft 392 kts 269°
2026-05-06 04:17 40.15870 46.90853 35967 ft 392 kts 268°
2026-05-06 04:17 40.15687 46.83688 35967 ft 394 kts 268°
2026-05-06 04:18 40.15512 46.76582 35966 ft 393 kts 268°
2026-05-06 04:18 40.15352 46.69485 35968 ft 393 kts 268°
2026-05-06 04:19 40.15171 46.62355 35966 ft 394 kts 268°
2026-05-06 04:19 40.15060 46.55179 35966 ft 393 kts 268°
2026-05-06 04:20 40.14954 46.48048 35966 ft 393 kts 268°
2026-05-06 04:20 40.14781 46.40920 35966 ft 394 kts 268°
2026-05-06 04:21 40.14589 46.33809 35966 ft 393 kts 268°
2026-05-06 04:21 40.14397 46.26693 35965 ft 394 kts 267°
2026-05-06 04:22 40.14191 46.19570 35964 ft 392 kts 267°
2026-05-06 04:23 40.13878 46.08865 35966 ft 394 kts 268°
2026-05-06 04:23 40.13667 46.01732 35966 ft 394 kts 267°
2026-05-06 04:24 40.13455 45.94641 35964 ft 392 kts 268°
2026-05-06 04:24 40.13454 45.87500 35965 ft 393 kts 270°
2026-05-06 04:25 40.13489 45.80376 35965 ft 394 kts 270°
2026-05-06 04:25 40.13500 45.73209 35960 ft 393 kts 270°
2026-05-06 04:26 40.13467 45.66074 35956 ft 393 kts 269°
2026-05-06 04:26 40.13402 45.58939 35952 ft 393 kts 269°
2026-05-06 04:27 40.13372 45.51844 35938 ft 392 kts 270°
2026-05-06 04:27 40.13343 45.44706 35926 ft 393 kts 269°
2026-05-06 04:28 40.13308 45.37590 35913 ft 394 kts 270°
2026-05-06 04:28 40.13330 45.30446 35907 ft 394 kts 270°
2026-05-06 04:29 40.13367 45.23309 35911 ft 392 kts 269°
2026-05-06 04:29 40.13351 45.16162 35912 ft 394 kts 269°
2026-05-06 04:30 40.13318 45.09069 35912 ft 392 kts 269°
2026-05-06 04:30 40.13298 45.01933 35913 ft 392 kts 268°
2026-05-06 04:31 40.13237 44.94835 35910 ft 393 kts 267°
2026-05-06 04:31 40.13141 44.87724 35912 ft 390 kts 266°
2026-05-06 04:32 40.13063 44.80671 35912 ft 391 kts 268°
2026-05-06 04:32 40.13031 44.73544 35915 ft 394 kts 268°
2026-05-06 04:33 40.13006 44.66416 35907 ft 389 kts 268°
2026-05-06 04:33 40.12926 44.59392 35912 ft 388 kts 267°
2026-05-06 04:34 40.12868 44.52349 35911 ft 391 kts 268°
2026-05-06 04:34 40.12791 44.45189 35912 ft 394 kts 268°
2026-05-06 04:35 40.12684 44.38073 35910 ft 392 kts 266°
2026-05-06 04:35 40.12519 44.30959 35913 ft 392 kts 266°
2026-05-06 04:36 40.12376 44.23870 35909 ft 392 kts 267°
2026-05-06 04:36 40.12252 44.16767 35911 ft 391 kts 266°
2026-05-06 04:37 40.12162 44.09701 35919 ft 392 kts 268°
2026-05-06 04:37 40.12167 44.02563 35927 ft 392 kts 268°
2026-05-06 04:38 40.12114 43.95460 35934 ft 393 kts 267°
2026-05-06 04:38 40.12037 43.88378 35937 ft 390 kts 266°
2026-05-06 04:39 40.11916 43.81292 35943 ft 392 kts 266°
2026-05-06 04:39 40.11711 43.74177 35938 ft 391 kts 267°
2026-05-06 04:40 40.11537 43.67092 35941 ft 391 kts 266°
2026-05-06 04:40 40.11234 43.60008 35937 ft 392 kts 264°
2026-05-06 04:41 40.10803 43.52925 35937 ft 391 kts 264°